User: anonymous   Login
Location: Unspecified
(0.0000°N, 0.0000°E)
Time: 12:15:51
(UTC+00:00)
Language:

Altair - Orbit

View from above orbital plane
View from above orbital plane
View from above satellite
View from above satellite

Ground track
Ground track

The orbit data is extracted from the following two-line orbital elements,

1    50U 60009B   17172.68361912 -.00000085 +00000-0 -38500-5 0  9990
2    50 047.2317 269.7346 0113523 311.5771 047.5331 12.20100196536928
Epoch (UTC): 21 June 2017 16:24:24
Eccentricity: 0.0113523
inclination: 47.2317°
perigee height: 1501 km
apogee height: 1682 km
right ascension of ascending node: 269.7346°
argument of perigee: 311.5771°
revolutions per day: 12.20100196
mean anomaly at epoch: 47.5331°
orbit number at epoch: 53692

The dashed part of the orbit path shows where the satellite is in the earth's shadow,  

DLR